TimeCDT,TemperatureF,Dew PointF,Humidity,Sea Level PressureIn,VisibilityMPH,Wind Direction,Wind SpeedMPH,Gust SpeedMPH,PrecipitationIn,Events,Conditions,WindDirDegrees,DateUTC
12:54 AM,35.1,28.0,76,30.37,10.0,North,9.2,-,N/A,,Clear,360,2012-10-27 05:54:00
1:54 AM,33.1,27.0,78,30.37,10.0,North,9.2,-,N/A,,Clear,360,2012-10-27 06:54:00
2:54 AM,32.0,26.1,79,30.35,10.0,North,9.2,-,N/A,,Clear,360,2012-10-27 07:54:00
3:54 AM,30.9,26.1,82,30.35,10.0,North,8.1,-,N/A,,Clear,350,2012-10-27 08:54:00
4:54 AM,32.0,26.1,79,30.35,10.0,North,10.4,-,N/A,,Clear,360,2012-10-27 09:54:00
5:54 AM,30.0,25.0,82,30.35,10.0,North,5.8,-,N/A,,Clear,360,2012-10-27 10:54:00
6:54 AM,28.0,24.1,85,30.35,10.0,North,5.8,-,N/A,,Clear,360,2012-10-27 11:54:00
7:54 AM,28.9,24.1,82,30.38,10.0,NNW,6.9,-,N/A,,Clear,330,2012-10-27 12:54:00
8:54 AM,34.0,26.1,73,30.39,10.0,North,10.4,-,N/A,,Clear,10,2012-10-27 13:54:00
9:54 AM,37.9,28.0,68,30.40,10.0,North,12.7,-,N/A,,Clear,10,2012-10-27 14:54:00
10:54 AM,41.0,27.0,57,30.39,10.0,NNE,12.7,-,N/A,,Clear,30,2012-10-27 15:54:00
11:54 AM,43.0,27.0,53,30.36,10.0,North,8.1,-,N/A,,Clear,10,2012-10-27 16:54:00
12:54 PM,43.0,26.1,51,30.34,10.0,North,8.1,-,N/A,,Clear,360,2012-10-27 17:54:00
1:54 PM,44.1,26.1,49,30.31,10.0,North,8.1,-,N/A,,Clear,350,2012-10-27 18:54:00
2:54 PM,46.9,28.0,48,30.28,10.0,North,10.4,-,N/A,,Clear,350,2012-10-27 19:54:00
3:54 PM,45.0,26.1,48,30.29,10.0,North,9.2,-,N/A,,Clear,10,2012-10-27 20:54:00
4:54 PM,44.1,27.0,51,30.29,10.0,North,9.2,-,N/A,,Clear,360,2012-10-27 21:54:00
5:54 PM,42.1,28.0,58,30.28,10.0,North,10.4,-,N/A,,Clear,10,2012-10-27 22:54:00
6:54 PM,37.9,28.0,68,30.29,10.0,North,6.9,-,N/A,,Clear,360,2012-10-27 23:54:00
7:54 PM,36.0,28.0,73,30.29,10.0,North,5.8,-,N/A,,Clear,10,2012-10-28 00:54:00
8:54 PM,34.0,27.0,75,30.30,10.0,North,5.8,-,N/A,,Clear,360,2012-10-28 01:54:00
9:54 PM,33.1,26.1,75,30.30,10.0,North,5.8,-,N/A,,Clear,360,2012-10-28 02:54:00
10:54 PM,34.0,27.0,75,30.31,10.0,North,4.6,-,N/A,,Clear,360,2012-10-28 03:54:00
11:54 PM,34.0,27.0,75,30.31,10.0,North,5.8,-,N/A,,Clear,10,2012-10-28 04:54:00